sat.trackr.live / text

‹ back to catalog

ASIASAT 5

NORAD 35696 · 2009-042A

PAYLOAD ACTIVE UNKNOWN

§ Identity

Operator
Country
AC
Launch date
2009-08-11
Launch site
TYMSC
Launch vehicle
Mass (kg)
RCS (m²)
15.85

Purposes: comms

External: N2YO · Heavens-Above · Gunter

§ Orbital elements

Epoch: 2026-05-25T00:47:59.042400Z

Period
1,436.07 min
Inclination
0.0698°
Eccentricity
0.0001600
Mean motion
1.00273648 rev/d
Perigee alt
35,779.3 km
Apogee alt
35,792.8 km
Semi-major
42,164.2 km
B*
0.0000e+0
RAAN
91.5646°
Arg perigee
311.9978°
Mean anomaly
311.5711°
Rev number
6,147

§ Raw data

ASIASAT 51 35696U 09042A   26145.03332225 -.00000310  00000+0  00000+0 0  99952 35696   0.0698  91.5646 0001600 311.9978 311.5711  1.00273648 61478

JSON: /api/v1/satellites/35696 · /tle

For live sub-satellite position, see the globe view (requires WebGL).

§ Visibility from observer

Set your observer location to see the next 7 days of passes ≥ 10°. The values pass through the URL so the page stays shareable.

No JS? Fill the form by hand. The geolocation button needs JavaScript.